Location: Artiguedieu
(43.5000°N, 0.5454°E)
Time: 10:03:06
(UTC+00:00)

S-56A Canister/Altair - All Passes

Search period start: 03 August 2021 00:00
Search period end: 13 August 2021 00:00
Orbit: 631 x 2501 km, 38.9° (Epoch: 02 August)

Date Brightness Start Highest point End Pass type
(mag) Time Alt. Az. Time Alt. Az. Time Alt. Az.
03 Aug - 11:59:00 10° S 12:07:54 27° SE 12:18:45 10° E daylight
03 Aug - 14:00:00 10° SW 14:12:09 57° SSE 14:26:46 10° E daylight
03 Aug - 16:04:18 10° WSW 16:18:26 74° S 16:33:11 10° E daylight
03 Aug - 18:10:13 10° W 18:25:01 64° SSW 18:38:17 10° ESE daylight
03 Aug - 20:17:23 10° W 20:30:05 36° SW 20:40:37 10° SSE visible
04 Aug - 11:27:06 10° S 11:34:59 23° SE 11:44:33 10° E daylight
04 Aug - 13:27:19 10° SW 13:38:48 53° SSE 13:53:07 10° E daylight
04 Aug - 15:31:11 10° WSW 15:44:48 73° S 15:59:49 10° E daylight
04 Aug - 17:36:47 10° W 17:51:28 67° SSW 18:05:17 10° ESE daylight
04 Aug - 19:43:35 10° W 19:56:54 40° SW 20:08:13 10° SSE visible
04 Aug - 21:55:26 10° WSW 22:00:03 12° WSW 22:04:21 10° SW visible
05 Aug - 10:55:28 10° SSE 11:02:09 19° SE 11:10:08 10° E daylight
05 Aug - 12:54:45 10° SW 13:05:32 49° SSE 13:19:24 10° E daylight
05 Aug - 14:58:10 10° WSW 15:11:13 72° S 15:26:20 10° E daylight
05 Aug - 17:03:27 10° W 17:17:53 69° SSW 17:32:10 10° ESE daylight
05 Aug - 19:09:54 10° W 19:23:37 44° SW 19:35:39 10° SSE daylight
05 Aug - 21:20:00 10° W 21:27:11 16° SW 21:33:42 10° SSW visible
06 Aug - 10:24:15 10° SSE 10:29:24 15° SE 10:35:21 10° E daylight
06 Aug - 12:22:17 10° SSW 12:32:21 44° SE 12:45:36 10° E daylight
06 Aug - 14:25:16 10° WSW 14:37:41 70° SSE 14:52:47 10° E daylight
06 Aug - 16:30:12 10° W 16:44:17 71° S 16:58:58 10° ESE daylight
06 Aug - 18:36:20 10° W 18:50:16 47° SSW 19:02:58 10° SE daylight
06 Aug - 20:45:18 10° W 20:54:15 19° SW 21:02:17 10° SSW visible
07 Aug - 09:54:05 10° SE 09:56:44 11° ESE 09:59:35 10° ESE daylight
07 Aug - 11:49:57 10° SSW 11:59:17 40° SE 12:11:45 10° E daylight
07 Aug - 13:52:26 10° WSW 14:04:13 68° SSE 14:19:11 10° E daylight
07 Aug - 15:57:04 10° W 16:10:41 72° S 16:25:39 10° ESE daylight
07 Aug - 18:02:51 10° W 18:16:51 51° SSW 18:30:09 10° SE daylight
07 Aug - 20:11:00 10° W 20:21:13 23° SW 20:30:28 10° S visible
08 Aug - 11:17:44 10° SSW 11:26:19 35° SE 11:37:50 10° E daylight
08 Aug - 13:19:43 10° WSW 13:30:49 65° SSE 13:45:29 10° E daylight
08 Aug - 15:24:00 10° W 15:37:05 73° S 15:52:13 10° ESE daylight
08 Aug - 17:29:29 10° W 17:43:24 54° SSW 17:57:13 10° SE daylight
08 Aug - 19:36:57 10° W 19:48:07 26° SW 19:58:24 10° S visible
09 Aug - 10:45:40 10° SSW 10:53:26 30° SE 11:03:51 10° E daylight
09 Aug - 12:47:05 10° WSW 12:57:31 62° SSE 13:11:45 10° E daylight
09 Aug - 14:51:02 10° W 15:03:32 73° S 15:18:42 10° ESE daylight
09 Aug - 16:56:13 10° W 17:09:53 58° SSW 17:24:10 10° SE daylight
09 Aug - 19:03:06 10° W 19:14:55 30° SW 19:26:06 10° S daylight
10 Aug - 10:13:44 10° S 10:20:40 26° SE 10:29:48 10° E daylight
10 Aug - 12:14:34 10° SW 12:24:18 58° SSE 12:37:58 10° E daylight
10 Aug - 14:18:10 10° W 14:30:02 73° S 14:45:07 10° E daylight
10 Aug - 16:23:03 10° W 16:36:22 60° SSW 16:50:59 10° SE daylight
10 Aug - 18:29:26 10° W 18:41:41 33° SW 18:53:37 10° SSE daylight
11 Aug - 09:41:59 10° S 09:47:59 21° SE 09:55:38 10° E daylight
11 Aug - 11:42:08 10° SW 11:51:12 53° SSE 12:04:10 10° E daylight
11 Aug - 13:45:22 10° WSW 13:56:35 73° S 14:11:27 10° E daylight
11 Aug - 15:49:58 10° W 16:02:51 63° SSW 16:17:41 10° ESE daylight
11 Aug - 17:55:54 10° W 18:08:23 36° SW 18:20:58 10° SSE daylight
11 Aug - 20:08:34 10° WSW 20:12:09 11° SW 20:15:40 10° SW visible
12 Aug - 09:10:32 10° SSE 09:15:22 17° SE 09:21:17 10° E daylight
12 Aug - 11:09:46 10° SW 11:18:10 49° SSE 11:30:21 10° E daylight
12 Aug - 13:12:40 10° WSW 13:23:12 72° S 13:37:45 10° E daylight
12 Aug - 15:16:59 10° W 15:29:21 65° SSW 15:44:18 10° ESE daylight
12 Aug - 17:22:31 10° W 17:35:02 40° SW 17:48:10 10° SSE daylight
12 Aug - 19:32:45 10° WSW 19:39:08 14° SW 19:45:25 10° SSW visible
